Погода в Есиле

Погода в Есиле : погода сейчас, прогноз погоды и архив. Всё, что Вы хотите узнать о погоде в Есиле!

Хотите узнать прогноз погоды в Есиле? Тогда Вам сюда: Погода в Есиле

Поиск расширенной информации на нашем сайте:

Полезная информация: Мероприятие финал конкурса бабушкины блины блины на мероприятие заказать.

Другие новости

Новости СМИ2

Главная страница сайта

Новости сайта

02.10.2013

Напоминаем, что на нашем новом сайте вы можете получить высокодетализированные прогнозы погоды по пунктам России, СНГ и мира (включающие важные для авиации метеовеличины, такие как направление и скорость ветра, видимость, явления погоды, количество и форма облачности, нижняя и верхняя граница облачности), а также ознакомиться с разнообразными материалами по авиационной метеорологии и подборкой полезных ссылок на эту тему.

Сайт Метеоцентр.Азия посвящён разработке технологий оптимизации авиаметеорологического обслуживания, включая проектирование и перспективное создание нескольких автоматизированных авиаметеорологических систем:
- система выпуска высокодетальных прогностических карт явлений погоды для нижнего воздушного пространства по России и ближнему зарубежью;
- система верификации прогнозов TAF (выпускаемых синоптиками официальных АМСГ РФ и ближнего зарубежья) и AUTOTAF (выпускаемых сайтом Метеоцентр.Азия) - выявление ошибок, онлайн-сопоставление с фактической погодой METAR, автоматическое внесение коррективов в прогнозы при резком отклонении фактической погоды от прогноза, подсчёт оправдываемости прогнозов по элементам и в целом;
- система обработки, анализа и отображения авиаметеорологической информации для применения провайдерами метеорологической информации.

Рекомендуем: тумба челябинск

Погода в Есиле - сегодня

Время (UTC), дата Ветер
(°,м/с) 
Видим.   Явления Облачность Т
(°С)
Тd
(°С)
f(%) Тe
(°С)
Pmin
(гПа)
dP
(гПа)
Po
(мм)
O2
(г/м3)
Тmin Tmax R s Состояние
почвы
03 20.04.17 250 (З) 20000 м    3/0 верхняя 
[Ci fib]
+10.5 +5 69 +12  1021.7  746  289           
06 20.04.17 140 (ЮВ) 20000 м    1/1 1000 м 
[Cu hum]
+20 +4.3 36 +20  1020.1  -0.7  746  279  +3.6         
09 20.04.17 140 (ЮВ) 20000 м    8/8 1000 м 
[Cu med, cong]
+21.1 +4 32 +21  1018.6  -1.4  745  278           
12 20.04.17 110 (В) 20000 м    6/6 1000 м 
[Cu med, cong]
+21.7 +1.8 27 +22  1016.8  -1.7  743  277           
15 20.04.17 110 (В) н/о    4/3 600 м верхняя 
[Cu Sc|Cs]
+18.1 +4 39 +19  1016  -1.1  743  280    +22.7       
18 20.04.17 110 (В) н/о    ясно 
+15 +7.6 61 +15  1015.4  -0.8  742  282    +22.7       
21 20.04.17 090 (В) н/о    ясно 
+13.2 +6.8 65 +13  1014  -1.6  741  284           
00 21.04.17 110 (В) н/о    6/0 верхняя 
[Cs]
+10.1 +5.3 72 +9  1012.5  -1.7  740  286           
03 21.04.17 110 (В) 20000 м    9/0 средняя, верхняя 
[Ac As|Cs]
+13 +4.8 57 +14  1010.7  -1.5  738  283           
06 21.04.17 140 (ЮВ) 20000 м    9/0 средняя, верхняя 
[Ac trans|Cs]
+17.5 +5.4 45 +18  1008.3  -1.9  737  278  +9.8         
09 21.04.17 140 (ЮВ) 20000 м    9/0 верхняя 
[Cs]
+22.2 +6.2 35 +22  1005.8  -2.1  735  273           
12 21.04.17 140 (ЮВ) 20000 м    9/1 1000 м средняя, верхняя 
[Cu hum|Ac As|Cs]
+21.6 +5.5 35 +22  1004.3  -1.5  734  273           
15 21.04.17 180 (Ю) н/о    8/6 600 м кучево-дожд., средняя 
[Cb calv|Ac trans]
+16.2 +8.2 59 +17  1004.5  -0.2  734  278    +23.3       
18 21.04.17 140 (ЮВ) н/о    9/5 600 м кучево-дожд., средняя 
[Cb calv|Ac trans]
+14 +8 67 +14  1005  0.3  734  280    +23.3       
21 21.04.17 320 (СЗ) н/о    4/3 600 м средняя 
[Sc|Ac trans]
+7.6 +2.4 70 +6  1007.4  1.7  736  288           
00 22.04.17 320 (СЗ) н/о    3/3 600 м 
[Sc]
+1.8 -2.9 71 -1  1011.6  3.5  738  296           
03 22.04.17 340 (С) 8-15{15}  20000 м    ясно 
+2.2 -4.1 63 -2  1015.2  3.5  741  297           
06 22.04.17 290 (З) 20000 м    ясно 
+4.6 -3.8 54 +1  1017.3  2.3  743  295  +0.6         
09 22.04.17 340 (С) 20000 м    ясно 
+7.8 -4.7 41 +6  1018.4  1.4  744  292           
12 22.04.17 290 (З) 20000 м    3/0 верхняя 
[Ci fib]
+9.3 -4.2 38 +8  1019.1  0.8  744  290           
15 22.04.17 тихо ()   н/о    6/4 600 м верхняя 
[Sc|Cs]
+7.4 -2.3 50 +7  1019.4  0.1  744  292    +9.5       
18 22.04.17 250 (З) н/о    4/4 600 м 
[Sc]
+4 -2.2 64 +4  1019.1  -0.6  744  296    +9.5       
21 22.04.17 110 (В) н/о    8/8 600 м 
[Sc]
+5.4 -1.6 61 +4  1017.2  -1.7  743  294           
00 23.04.17 110 (В) н/о    10/10 600 м 
[Sc]
+5.8 -0.2 65 +6  1013.8  -3.3  740  292           
03 23.04.17 110 (В) 20000 м    10/6 600 м средняя 
[Sc|Ac As]
+7.3 -1.3 54 +5  1008.5  -5  736  289           
Время (UTC), дата Ветер
(°,м/с) 
Видим.   Явления Облачность Т
(°С)
Тd
(°С)
f(%) Тe
(°С)
Pmin
(гПа)
dP
(гПа)
Po
(мм)
O2
(г/м3)
Тmin Tmax R s Состояние
почвы

Для получения пояснительной информации подведите курсор к названию столбца.

ПОГОДА в Есиле - архив

Всё, что Вы хотите узнать о погоде в Есиле - удобно и подробно!

Выберите нужную дату (начиная с 1 января 2015* года) и нажмите кнопку "Найти".
Будут отображены архивные сводки погоды по пункту Есиль, начиная с указанной даты.


Отображать данные в формате CSV (для использования в таблицах Excel)


Внимание! Наш архив погоды предназначен исключительно для личного некоммерческого использования в познавательных целях. Если Вам необходимы официальные справки о состоянии погоды (для производственных, юридических, коммерческих и т.п. целей), обращайтесь в органы Росгидромета.

*Примечание: данная дата относится к архиву по метеостанциям СССР (Россия, СНГ, Балтия).
Архив по метеостанциям Зарубежной Европы и Азии (кроме Китая) хранится 10 дней, по другим регионам земного шара (Китай, Африка, Америка, Австралия, Океания) - 1 день.

Есиль - район местоположения метеостанции


Название, широта, долгота, высота метеостанции:
Есиль 51.9°ш. 66.3°д. 221 м над ур. моря [Казахстан]

Дополнительная информация

В oтличие oт бoльшинства пoгoдных сайтoв мы публикуем пoдрoбную метеoинфoрмацию в детальнoм прoфессиoнальнoм фoрмате.

Характеристики температуры и влажнoсти вoздуха измеряются на высoте 2 м в тени вдали oт зданий и деревьев.
Скoрoсть ветра измеряется на высoте 10 м (на урoвне рoста челoвека скoрoсть ветра ниже в 1.5-2 раза). Если метеoстанция нахoдится в гoрoде или в лесу, тo скoрoсть ветра занижена на 2-4 м/с пo сравнению с oткрытым местoм. Скoрoсть ветра над акватoриями крупных рек и oзёр, а также на вершинах хoлмoв на 2-5 м/с выше, чем в oбычных услoвиях.
Атмoсфернoе давление в разных тoчках местнoсти мoжет значительнo oтличаться oт давления на метеoстанции, в зависимoсти oт услoвий рельефа (при пoдъёме на 10 м давление пoнижается примернo на 1 мм рт.ст.).